| time (UTC) | temp C | wind direction | speed KPH | gust KPH | rain 1hr cm | rain 24hr cm | rain mn cm | humidity % | barometer mb |
| 20260502210504 | 12 | 329 | 0.0 | 4.8 | 0.00 | 0.58 | 0.58 | 94 | 1011.0 |
| 20260502210004 | 12 | 327 | 1.6 | 4.8 | 0.00 | 0.58 | 0.58 | 94 | 1011.1 |
| 20260502205005 | 12 | 286 | 1.6 | 4.8 | 0.00 | 0.58 | 0.58 | 94 | 1011.1 |
| 20260502204005 | 12 | 317 | 3.2 | 4.8 | 0.00 | 0.58 | 0.58 | 94 | 1011.0 |
| 20260502203505 | 12 | 317 | 1.6 | 4.8 | 0.00 | 0.58 | 0.58 | 94 | 1011.0 |
| 20260502202005 | 12 | 330 | 3.2 | 4.8 | 0.00 | 0.58 | 0.58 | 94 | 1011.0 |
| 20260502201505 | 12 | 341 | 3.2 | 4.8 | 0.00 | 0.58 | 0.58 | 94 | 1011.0 |
| 20260502201004 | 12 | 330 | 3.2 | 8.0 | 0.00 | 0.58 | 0.58 | 94 | 1011.0 |
| 20260502195505 | 12 | 332 | 3.2 | 4.8 | 0.00 | 0.58 | 0.58 | 94 | 1011.1 |
| 20260502195004 | 12 | 308 | 1.6 | 4.8 | 0.00 | 0.58 | 0.58 | 94 | 1011.1 |
| 20260502194004 | 12 | 291 | 0.0 | 3.2 | 0.00 | 0.58 | 0.58 | 94 | 1011.3 |
| 20260502192505 | 12 | 156 | 0.0 | 3.2 | 0.00 | 0.58 | 0.58 | 93 | 1011.2 |
| 20260502192005 | 12 | 156 | 0.0 | 3.2 | 0.00 | 0.58 | 0.58 | 93 | 1011.3 |
| 20260502190505 | 12 | 153 | 0.0 | 3.2 | 0.00 | 0.58 | 0.58 | 94 | 1011.4 |
| 20260502185504 | 12 | 153 | 0.0 | 3.2 | 0.00 | 0.58 | 0.58 | 94 | 1011.3 |
| 20260502184005 | 12 | 153 | 0.0 | 3.2 | 0.00 | 0.58 | 0.58 | 93 | 1011.3 |
| 20260502182005 | 12 | 153 | 1.6 | 3.2 | 0.00 | 0.58 | 0.58 | 93 | 1011.3 |
| 20260502181504 | 12 | 153 | 0.0 | 4.8 | 0.00 | 0.58 | 0.58 | 93 | 1011.4 |
| 20260502181004 | 12 | 156 | 1.6 | 4.8 | 0.00 | 0.58 | 0.58 | 93 | 1011.4 |
| 20260502170504 | 12 | 119 | 1.6 | 3.2 | 0.03 | 0.58 | 0.58 | 93 | 1011.9 |
| 20260502162504 | 12 | 105 | 1.6 | 4.8 | 0.05 | 0.56 | 0.56 | 92 | 1012.2 |
| 20260502162005 | 12 | 105 | 3.2 | 4.8 | 0.10 | 0.56 | 0.56 | 92 | 1012.2 |
| 20260502161504 | 12 | 117 | 1.6 | 4.8 | 0.15 | 0.56 | 0.56 | 92 | 1012.3 |
| 20260502161004 | 12 | 135 | 1.6 | 4.8 | 0.15 | 0.56 | 0.56 | 92 | 1012.4 |
| 20260502160505 | 12 | 218 | 0.0 | 1.6 | 0.15 | 0.56 | 0.56 | 92 | 1012.4 |
| 20260502152005 | 13 | 103 | 1.6 | 4.8 | 0.28 | 0.46 | 0.46 | 90 | 1012.8 |
| 20260502151504 | 13 | 110 | 1.6 | 4.8 | 0.25 | 0.41 | 0.41 | 90 | 1013.0 |
| 20260502122504 | 17 | 134 | 4.8 | 9.7 | 0.00 | 0.00 | 0.00 | 66 | 1014.8 |
| 20260502122004 | 17 | 93 | 4.8 | 9.7 | 0.00 | 0.00 | 0.00 | 65 | 1014.9 |
| 20260502121505 | 17 | 108 | 3.2 | 8.0 | 0.00 | 0.00 | 0.00 | 66 | 1014.9 |
| 20260502120504 | 17 | 154 | 3.2 | 11.3 | 0.00 | 0.00 | 0.00 | 67 | 1015.1 |
| 20260502114504 | 17 | 151 | 6.4 | 12.9 | 0.00 | 0.00 | 0.00 | 66 | 1015.4 |
| 20260502113505 | 17 | 173 | 6.4 | 11.3 | 0.00 | 0.00 | 0.00 | 68 | 1015.6 |
| 20260502113005 | 17 | 182 | 1.6 | 9.7 | 0.00 | 0.00 | 0.00 | 68 | 1015.6 |
| 20260502112505 | 17 | 110 | 3.2 | 8.0 | 0.00 | 0.00 | 0.00 | 69 | 1015.7 |
| 20260502112004 | 17 | 114 | 4.8 | 8.0 | 0.00 | 0.00 | 0.00 | 69 | 1015.7 |
| 20260502110505 | 17 | 114 | 3.2 | 11.3 | 0.00 | 0.00 | 0.00 | 68 | 1015.9 |
| 20260502105505 | 17 | 45 | 3.2 | 11.3 | 0.00 | 0.00 | 0.00 | 68 | 1016.0 |
| 20260502102504 | 17 | 117 | 4.8 | 11.3 | 0.00 | 0.03 | 0.00 | 69 | 1016.3 |
| 20260502101504 | 17 | 157 | 1.6 | 8.0 | 0.00 | 0.03 | 0.00 | 68 | 1016.5 |
| 20260502091005 | 16 | 154 | 4.8 | 9.7 | 0.00 | 0.03 | 0.00 | 70 | 1017.1 |
| 20260502071504 | 11 | 181 | 3.2 | 4.8 | 0.00 | 0.03 | 0.00 | 94 | 1018.0 |
| 20260502071005 | 10 | 165 | 1.6 | 4.8 | 0.00 | 0.03 | 0.00 | 95 | 1018.0 |
| 20260502070504 | 10 | 205 | 1.6 | 3.2 | 0.00 | 0.03 | 0.00 | 96 | 1018.0 |
| 20260502070005 | 9 | 205 | 1.6 | 3.2 | 0.00 | 0.03 | 0.00 | 95 | 1018.0 |
| 20260502065506 | 9 | 205 | 0.0 | 1.6 | 0.00 | 0.03 | 0.00 | 95 | 1017.9 |
| 20260502065004 | 8 | 207 | 0.0 | 1.6 | 0.00 | 0.03 | 0.00 | 95 | 1018.0 |
| 20260502063504 | 8 | 219 | 0.0 | 1.6 | 0.00 | 0.03 | 0.00 | 95 | 1018.0 |
| 20260502062504 | 8 | 219 | 0.0 | 1.6 | 0.00 | 0.03 | 0.00 | 95 | 1018.1 |
| 20260502062004 | 8 | 219 | 0.0 | 3.2 | 0.00 | 0.03 | 0.00 | 95 | 1018.1 |
| 20260502060504 | 8 | 225 | 0.0 | 1.6 | 0.00 | 0.03 | 0.00 | 95 | 1018.0 |
| 20260502054504 | 8 | 230 | 0.0 | 1.6 | 0.00 | 0.03 | 0.00 | 95 | 1018.2 |
| 20260502053005 | 7 | 230 | 0.0 | 1.6 | 0.00 | 0.03 | 0.00 | 95 | 1018.3 |
| 20260502052004 | 7 | 230 | 0.0 | 0.0 | 0.00 | 0.03 | 0.00 | 95 | 1018.3 |
| 20260502051504 | 7 | 230 | 0.0 | 0.0 | 0.00 | 0.03 | 0.00 | 95 | 1018.3 |
| 20260502051005 | 7 | 230 | 0.0 | 0.0 | 0.00 | 0.03 | 0.00 | 94 | 1018.2 |
| 20260502044504 | 7 | 180 | 0.0 | 3.2 | 0.00 | 0.03 | 0.00 | 94 | 1018.2 |
| 20260502044004 | 7 | 180 | 1.6 | 1.6 | 0.00 | 0.03 | 0.00 | 94 | 1018.2 |
| 20260502043504 | 7 | 180 | 0.0 | 1.6 | 0.00 | 0.03 | 0.00 | 94 | 1018.1 |
| 20260502043005 | 7 | 180 | 0.0 | 1.6 | 0.00 | 0.03 | 0.00 | 94 | 1018.2 |
| 20260502042004 | 7 | 180 | 0.0 | 0.0 | 0.00 | 0.03 | 0.00 | 94 | 1018.2 |
| 20260502034505 | 8 | 180 | 0.0 | 0.0 | 0.00 | 0.03 | 0.00 | 94 | 1018.3 |
| 20260502033004 | 8 | 180 | 0.0 | 4.8 | 0.00 | 0.03 | 0.00 | 94 | 1018.6 |
| 20260502031504 | 7 | 218 | 0.0 | 1.6 | 0.00 | 0.03 | 0.00 | 94 | 1018.7 |
| 20260502030504 | 7 | 218 | 0.0 | 1.6 | 0.00 | 0.03 | 0.00 | 94 | 1018.7 |
| 20260502025004 | 7 | 218 | 0.0 | 0.0 | 0.00 | 0.03 | 0.00 | 93 | 1018.8 |
| 20260502024504 | 7 | 218 | 0.0 | 0.0 | 0.00 | 0.03 | 0.00 | 93 | 1018.8 |
| 20260502024004 | 7 | 218 | 0.0 | 0.0 | 0.00 | 0.03 | 0.00 | 93 | 1018.9 |
| 20260502021005 | 8 | 218 | 0.0 | 4.8 | 0.00 | 0.03 | 0.00 | 93 | 1019.2 |
| 20260502020505 | 8 | 218 | 0.0 | 4.8 | 0.00 | 0.03 | 0.00 | 93 | 1019.3 |
| 20260502015504 | 8 | 218 | 0.0 | 1.6 | 0.00 | 0.03 | 0.00 | 93 | 1019.3 |
| 20260502015005 | 8 | 218 | 0.0 | 3.2 | 0.00 | 0.03 | 0.00 | 92 | 1019.3 |
| 20260502014504 | 8 | 218 | 0.0 | 3.2 | 0.00 | 0.03 | 0.00 | 92 | 1019.3 |
| 20260502014004 | 8 | 218 | 1.6 | 3.2 | 0.00 | 0.03 | 0.00 | 92 | 1019.3 |
| 20260502011004 | 9 | 218 | 0.0 | 0.0 | 0.00 | 0.03 | 0.00 | 92 | 1019.5 |
| 20260502010004 | 9 | 218 | 0.0 | 0.0 | 0.00 | 0.03 | 0.00 | 92 | 1019.6 |
| 20260502004504 | 9 | 218 | 0.0 | 0.0 | 0.00 | 0.03 | 0.00 | 92 | 1019.6 |
| 20260502003504 | 9 | 218 | 0.0 | 0.0 | 0.00 | 0.03 | 0.00 | 92 | 1019.7 |
| 20260502003005 | 9 | 218 | 0.0 | 0.0 | 0.00 | 0.03 | 0.00 | 92 | 1019.7 |
| 20260502002004 | 9 | 218 | 0.0 | 1.6 | 0.00 | 0.03 | 0.00 | 92 | 1019.8 |
| 20260502001004 | 9 | 218 | 0.0 | 3.2 | 0.00 | 0.03 | 0.00 | 92 | 1019.8 |
| 20260502000004 | 9 | 218 | 0.0 | 0.0 | 0.00 | 0.03 | 0.00 | 91 | 1019.8 |
| 20260501235005 | 10 | 218 | 0.0 | 0.0 | 0.00 | 0.03 | 0.00 | 90 | 1019.8 |
| 20260501234504 | 10 | 218 | 0.0 | 1.6 | 0.00 | 0.03 | 0.00 | 90 | 1019.9 |
| 20260501232505 | 10 | 218 | 0.0 | 0.0 | 0.00 | 0.03 | 0.00 | 90 | 1019.9 |
| 20260501232004 | 10 | 218 | 0.0 | 0.0 | 0.00 | 0.03 | 0.00 | 90 | 1020.0 |
| 20260501231504 | 10 | 218 | 0.0 | 0.0 | 0.00 | 0.03 | 0.00 | 90 | 1020.0 |
| 20260501230004 | 10 | 218 | 0.0 | 1.6 | 0.00 | 0.03 | 0.00 | 90 | 1020.1 |
| 20260501224505 | 10 | 218 | 0.0 | 0.0 | 0.00 | 0.03 | 0.03 | 89 | 1020.2 |
| 20260501223504 | 11 | 218 | 0.0 | 0.0 | 0.00 | 0.03 | 0.03 | 88 | 1020.3 |
| 20260501220505 | 11 | 218 | 0.0 | 1.6 | 0.00 | 0.03 | 0.03 | 88 | 1020.3 |
| 20260501211005 | 12 | 218 | 1.6 | 3.2 | 0.00 | 0.03 | 0.03 | 86 | 1020.2 |